This is the latest recevied weather packets stored in our database for station/object KE7PGE-13. If no packets are shown the sender has not sent any weather packets the latest 10 day(s).
| Time | Temp. | Humidity | Pressure | Rain* | Wind** | Luminosity | Snow |
|---|---|---|---|---|---|---|---|
| 1788556204 | 18.33° C | 73% | 1014.7 hPa | 0 mm | - | - | - |
| 1788552604 | 17.78° C | 74% | 1014.9 hPa | 0 mm | - | - | - |
| 1788545404 | 14.44° C | 92% | 1014.7 hPa | 0 mm | - | - | - |
| 1788534604 | 10.56° C | 97% | 1013.7 hPa | 0 mm | - | - | - |
| 1788532805 | 10.56° C | 97% | 1013.5 hPa | 0 mm | - | - | - |
| 1788531005 | 10° C | 97% | 1013.3 hPa | 0 mm | - | - | - |
| 1788529204 | 10° C | 96% | 1013 hPa | 0 mm | - | - | - |
| 1788527404 | 10° C | 96% | 1012.8 hPa | 0 mm | - | - | - |
| 1788523804 | 10° C | 96% | 1012.5 hPa | 0 mm | - | - | - |
| 1788522004 | 10° C | 95% | 1012.5 hPa | 0 mm | - | - | - |
| 1788520204 | 10.56° C | 96% | 1012.4 hPa | 0 mm | - | - | - |
| 1788507605 | 11.67° C | 96% | 1012.3 hPa | 0 mm | - | - | - |
| 1788504005 | 11.67° C | 96% | 1012.2 hPa | 0 mm | - | - | - |
| 1788495004 | 12.22° C | 95% | 1011.8 hPa | 0 mm | - | - | - |
| 1788489604 | 13.89° C | 91% | 1011.4 hPa | 0 mm | - | - | - |
| 1788486005 | 15.56° C | 88% | 1011.5 hPa | 1.52 mm | - | - | - |
| 1788480604 | 16.67° C | 81% | 1011.3 hPa | 0 mm | - | - | - |
| 1788457203 | 12.22° C | 98% | 1010.4 hPa | 0 mm | - | - | - |
| 1788451804 | 11.11° C | 98% | 1010.6 hPa | 0 mm | - | - | - |
| 1788450004 | 10.56° C | 98% | 1010.6 hPa | 0 mm | - | - | - |
| 1788448205 | 10.56° C | 98% | 1010.6 hPa | 0 mm | - | - | - |
| 1788444605 | 10° C | 98% | 1010.3 hPa | 0 mm | - | - | - |
| 1788441005 | 10° C | 97% | 1009.7 hPa | 0 mm | - | - | - |
| 1788439204 | 10° C | 98% | 1009.5 hPa | 0 mm | - | - | - |
| 1788433804 | 10° C | 97% | 1009.3 hPa | 0 mm | - | - | - |
* Rain latest hour (hover to see other rain measurements)
** Current wind speed in m/s (hover to see current wind gust speed)